Location: Unspecified
(0.0000°N, 0.0000°E)
Time: 23:26:54
(UTC+00:00)

Kosmos-2266 - Pass Details

Date: 09 June 2023
Orbit: 945 x 1018 km, 82.9° (Epoch: 28 September)

Event Time Altitude Azimuth Distance (km) Brightness Sun altitude
Rises 05:09:59 0° 40° (NE) 3,717 9.8 -11.3°
Reaches altitude 10° 05:15:50 10° 82° (E) 2,788 9.3 -10.0°
Maximum altitude 05:16:24 10° 87° (E) 2,781 9.2 -9.8°
Drops below altitude 10° 05:16:58 10° 92° (E) 2,791 9.0 -9.7°
Sets 05:22:50 0° 134° (SE) 3,754 8.9 -8.4°
